![]() |
EMODnet Physics ERDDAP
Easier access to scientific data |
log in|
Brought to you by EMODnet Physics |
| Dataset Title: | NDBC - Collection of dew point temperature (DEWT) TimeSeries - IN SITU MultiPointTimeSeriesObservation
|
| Institution: | NDBC (Dataset ID: TS_DEWT_NDBC) |
| Information: | Summary
| License
| FGDC
| ISO 19115
| Metadata
| Background
| Subset
| Data Access Form
| Make a graph
|
| Name | Last modified | Size | Description | |
|---|---|---|---|---|
| Parent Directory | - | - | ||
| OKSI2_TS_DEWT_012016.nc | 24-Nov-2024 03:30 | 429292 | ||
| OKSI2_TS_DEWT_012017.nc | 24-Nov-2024 04:23 | 429286 | ||
| OKSI2_TS_DEWT_012018.nc | 24-Nov-2024 05:18 | 429286 | ||
| OKSI2_TS_DEWT_012021.nc | 24-Nov-2024 06:56 | 429293 | ||
| OKSI2_TS_DEWT_012022.nc | 24-Nov-2024 07:49 | 429291 | ||
| OKSI2_TS_DEWT_012023.nc | 24-Nov-2024 08:47 | 429288 | ||
| OKSI2_TS_DEWT_022016.nc | 24-Nov-2024 03:34 | 429278 | ||
| OKSI2_TS_DEWT_022018.nc | 24-Nov-2024 05:21 | 429268 | ||
| OKSI2_TS_DEWT_022021.nc | 24-Nov-2024 07:01 | 429294 | ||
| OKSI2_TS_DEWT_022022.nc | 24-Nov-2024 07:54 | 429287 | ||
| OKSI2_TS_DEWT_022023.nc | 24-Nov-2024 08:52 | 429282 | ||
| OKSI2_TS_DEWT_032016.nc | 24-Nov-2024 03:38 | 425164 | ||
| OKSI2_TS_DEWT_032017.nc | 24-Nov-2024 04:33 | 429271 | ||
| OKSI2_TS_DEWT_032018.nc | 24-Nov-2024 05:24 | 429288 | ||
| OKSI2_TS_DEWT_032020.nc | 24-Nov-2024 06:11 | 429289 | ||
| OKSI2_TS_DEWT_032021.nc | 24-Nov-2024 07:06 | 429294 | ||
| OKSI2_TS_DEWT_032022.nc | 24-Nov-2024 07:59 | 429496 | ||
| OKSI2_TS_DEWT_032023.nc | 24-Nov-2024 08:57 | 429493 | ||
| OKSI2_TS_DEWT_042016.nc | 24-Nov-2024 03:43 | 429490 | ||
| OKSI2_TS_DEWT_042017.nc | 24-Nov-2024 04:39 | 429494 | ||
| OKSI2_TS_DEWT_042018.nc | 24-Nov-2024 05:28 | 429491 | ||
| OKSI2_TS_DEWT_042020.nc | 24-Nov-2024 06:14 | 429495 | ||
| OKSI2_TS_DEWT_042021.nc | 24-Nov-2024 07:10 | 429492 | ||
| OKSI2_TS_DEWT_042022.nc | 24-Nov-2024 08:04 | 429495 | ||
| OKSI2_TS_DEWT_042023.nc | 24-Nov-2024 09:01 | 429494 | ||
| OKSI2_TS_DEWT_052012.nc | 24-Nov-2024 02:10 | 429492 | ||
| OKSI2_TS_DEWT_052016.nc | 24-Nov-2024 03:48 | 429491 | ||
| OKSI2_TS_DEWT_052017.nc | 24-Nov-2024 04:44 | 429494 | ||
| OKSI2_TS_DEWT_052018.nc | 24-Nov-2024 05:32 | 429490 | ||
| OKSI2_TS_DEWT_052019.nc | 24-Nov-2024 05:48 | 429494 | ||
| OKSI2_TS_DEWT_052020.nc | 24-Nov-2024 06:20 | 429494 | ||
| OKSI2_TS_DEWT_052021.nc | 24-Nov-2024 07:14 | 429492 | ||
| OKSI2_TS_DEWT_052022.nc | 24-Nov-2024 08:09 | 429349 | ||
| OKSI2_TS_DEWT_052023.nc | 24-Nov-2024 09:05 | 429492 | ||
| OKSI2_TS_DEWT_062012.nc | 24-Nov-2024 02:15 | 429494 | ||
| OKSI2_TS_DEWT_062015.nc | 24-Nov-2024 03:00 | 429490 | ||
| OKSI2_TS_DEWT_062016.nc | 24-Nov-2024 03:53 | 429603 | ||
| OKSI2_TS_DEWT_062017.nc | 24-Nov-2024 04:48 | 429605 | ||
| OKSI2_TS_DEWT_062018.nc | 24-Nov-2024 05:38 | 429607 | ||
| OKSI2_TS_DEWT_062019.nc | 24-Nov-2024 05:52 | 429612 | ||
| OKSI2_TS_DEWT_062020.nc | 24-Nov-2024 06:26 | 429621 | ||
| OKSI2_TS_DEWT_062021.nc | 24-Nov-2024 07:18 | 429593 | ||
| OKSI2_TS_DEWT_062022.nc | 24-Nov-2024 08:13 | 429584 | ||
| OKSI2_TS_DEWT_062023.nc | 24-Nov-2024 09:10 | 429617 | ||
| OKSI2_TS_DEWT_072012.nc | 24-Nov-2024 02:19 | 429613 | ||
| OKSI2_TS_DEWT_072014.nc | 24-Nov-2024 02:41 | 429612 | ||
| OKSI2_TS_DEWT_072015.nc | 24-Nov-2024 03:05 | 429617 | ||
| OKSI2_TS_DEWT_072016.nc | 24-Nov-2024 03:57 | 429617 | ||
| OKSI2_TS_DEWT_072017.nc | 24-Nov-2024 04:52 | 429609 | ||
| OKSI2_TS_DEWT_072018.nc | 24-Nov-2024 05:44 | 422300 | ||
| OKSI2_TS_DEWT_072019.nc | 24-Nov-2024 05:57 | 429621 | ||
| OKSI2_TS_DEWT_072020.nc | 24-Nov-2024 06:30 | 427236 | ||
| OKSI2_TS_DEWT_072021.nc | 24-Nov-2024 07:22 | 429596 | ||
| OKSI2_TS_DEWT_072022.nc | 24-Nov-2024 08:19 | 429617 | ||
| OKSI2_TS_DEWT_072023.nc | 24-Nov-2024 09:14 | 429617 | ||
| OKSI2_TS_DEWT_082011.nc | 24-Nov-2024 01:51 | 429611 | ||
| OKSI2_TS_DEWT_082012.nc | 24-Nov-2024 02:23 | 429423 | ||
| OKSI2_TS_DEWT_082014.nc | 24-Nov-2024 02:46 | 429833 | ||
| OKSI2_TS_DEWT_082015.nc | 24-Nov-2024 03:10 | 429839 | ||
| OKSI2_TS_DEWT_082016.nc | 24-Nov-2024 04:00 | 429834 | ||
| OKSI2_TS_DEWT_082017.nc | 24-Nov-2024 04:57 | 429816 | ||
| OKSI2_TS_DEWT_082019.nc | 24-Nov-2024 06:02 | 429836 | ||
| OKSI2_TS_DEWT_082020.nc | 24-Nov-2024 06:35 | 429836 | ||
| OKSI2_TS_DEWT_082021.nc | 24-Nov-2024 07:27 | 429837 | ||
| OKSI2_TS_DEWT_082022.nc | 24-Nov-2024 08:24 | 429836 | ||
| OKSI2_TS_DEWT_082023.nc | 24-Nov-2024 09:18 | 429836 | ||
| OKSI2_TS_DEWT_092011.nc | 24-Nov-2024 01:56 | 429836 | ||
| OKSI2_TS_DEWT_092012.nc | 24-Nov-2024 02:27 | 429833 | ||
| OKSI2_TS_DEWT_092014.nc | 24-Nov-2024 02:50 | 429836 | ||
| OKSI2_TS_DEWT_092015.nc | 24-Nov-2024 03:14 | 429834 | ||
| OKSI2_TS_DEWT_092016.nc | 24-Nov-2024 04:05 | 429572 | ||
| OKSI2_TS_DEWT_092017.nc | 24-Nov-2024 05:02 | 429837 | ||
| OKSI2_TS_DEWT_092019.nc | 24-Nov-2024 06:06 | 429835 | ||
| OKSI2_TS_DEWT_092020.nc | 24-Nov-2024 06:39 | 429833 | ||
| OKSI2_TS_DEWT_092021.nc | 24-Nov-2024 07:32 | 429837 | ||
| OKSI2_TS_DEWT_092022.nc | 24-Nov-2024 08:29 | 574731 | ||
| OKSI2_TS_DEWT_092023.nc | 24-Nov-2024 09:24 | 448725 | ||
| OKSI2_TS_DEWT_102011.nc | 24-Nov-2024 02:00 | 637443 | ||
| OKSI2_TS_DEWT_102012.nc | 24-Nov-2024 02:32 | 673224 | ||
| OKSI2_TS_DEWT_102014.nc | 24-Nov-2024 02:56 | 639385 | ||
| OKSI2_TS_DEWT_102015.nc | 24-Nov-2024 03:17 | 440465 | ||
| OKSI2_TS_DEWT_102016.nc | 24-Nov-2024 04:09 | 677591 | ||
| OKSI2_TS_DEWT_102017.nc | 24-Nov-2024 05:06 | 675847 | ||
| OKSI2_TS_DEWT_102020.nc | 24-Nov-2024 06:44 | 668808 | ||
| OKSI2_TS_DEWT_102021.nc | 24-Nov-2024 07:36 | 434895 | ||
| OKSI2_TS_DEWT_102022.nc | 24-Nov-2024 08:34 | 617254 | ||
| OKSI2_TS_DEWT_102023.nc | 24-Nov-2024 09:30 | 644306 | ||
| OKSI2_TS_DEWT_112011.nc | 24-Nov-2024 02:05 | 685971 | ||
| OKSI2_TS_DEWT_112015.nc | 24-Nov-2024 03:21 | 430406 | ||
| OKSI2_TS_DEWT_112016.nc | 24-Nov-2024 04:14 | 438690 | ||
| OKSI2_TS_DEWT_112017.nc | 24-Nov-2024 05:10 | 631003 | ||
| OKSI2_TS_DEWT_112020.nc | 24-Nov-2024 06:48 | 679600 | ||
| OKSI2_TS_DEWT_112021.nc | 24-Nov-2024 07:40 | 685132 | ||
| OKSI2_TS_DEWT_112022.nc | 24-Nov-2024 08:38 | 678183 | ||
| OKSI2_TS_DEWT_112023.nc | 24-Nov-2024 09:35 | 915588 | ||
| OKSI2_TS_DEWT_122012.nc | 24-Nov-2024 02:37 | 683539 | ||
| OKSI2_TS_DEWT_122015.nc | 24-Nov-2024 03:26 | 443737 | ||
| OKSI2_TS_DEWT_122016.nc | 24-Nov-2024 04:19 | 665503 | ||
| OKSI2_TS_DEWT_122017.nc | 24-Nov-2024 05:14 | 466085 | ||
| OKSI2_TS_DEWT_122020.nc | 24-Nov-2024 06:52 | 436042 | ||
| OKSI2_TS_DEWT_122021.nc | 24-Nov-2024 07:44 | 444632 | ||
| OKSI2_TS_DEWT_122022.nc | 24-Nov-2024 08:42 | 476907 | ||
| OKSI2_TS_DEWT_122023.nc | 24-Nov-2024 09:40 | 671725 | ||